Regional Weather Roundup
Issued by NWS

Home | Current Version | Previous Version | Graphics & Text | Print | Product List | Glossary On
Versions: 1 2 3 4 5 6 7 8 9 10 11 12 13 14 15 16 17 18 19 20 21 22 23 24 25 26 27 28 29 30 31 32 33 34 35 36 37 38 39 40 41 42 43 44 45 46 47 48 49 50
000
ASUS43 KTOP 222259
RWRKS

WEATHER ROUNDUP FOR KANSAS
NATIONAL WEATHER SERVICE GOODLAND KS
600 PM CDT THU JUN 22 2017

NOTE:  "FAIR" INDICATES FEW OR NO CLOUDS BELOW 12,000 FEET WITH NO
SIGNIFICANT WEATHER AND/OR OBSTRUCTIONS TO VISIBILITY.

KSZ001>006-013>018-027>032-041>047-230000-
NORTHWEST KANSAS

CITY           SKY/WX    TMP DP  RH WIND       PRES   REMARKS
GOODLAND       CLOUDY    85  59  41 N18       29.80R
HAYS           SUNNY     99  62  29 E5        29.59F HX 100
HILL CITY      SUNNY     98  60  28 N17       29.64R HX  98
RUSSELL        SUNNY    100  59  25 S9        29.58F HX 100
$$

KSZ061>065-074>080-084>089-230000-
SOUTHWEST KANSAS

CITY           SKY/WX    TMP DP  RH WIND       PRES   REMARKS
DODGE CITY     SUNNY     95  63  34 S12       29.65S HX  96
ELKHART          N/A     95  58  29 SE18        N/A
GARDEN CITY    MOSUNNY   89  62  40 S9        29.68R
GREAT BEND     SUNNY     98  64  32 S13       29.61F HX 100
LIBERAL        SUNNY     96  62  32 S20       29.65F HX  97
$$

KSZ066>073-081>083-090>101-230000-
SOUTHEAST KANSAS

CITY           SKY/WX    TMP DP  RH WIND       PRES   REMARKS
CHANUTE        MOSUNNY   86  72  62 S8        29.66F
COFFEYVILLE    PTSUNNY   88  73  61 SE9       29.66S HX  95
HUTCHINSON     SUNNY     96  62  32 S16       29.61S HX  97
MEDICINE LODGE   N/A     96  60  30 S14G20    29.60F HX  96
NEWTON         SUNNY     91  68  46 S18G25    29.63F HX  95
PARSONS        MOSUNNY   87  73  62 S9        29.68S
WICHITA INTL   MOSUNNY   91  67  44 S14       29.62F
WICHITA JABRA  SUNNY     88  69  53 S15       29.63F
WINFIELD       SUNNY     88  69  53 SE9       29.67S
$$

KSZ007>012-019>026-033>040-048>060-102>105-230000-
NORTHEAST KANSAS

CITY           SKY/WX    TMP DP  RH WIND       PRES   REMARKS
CONCORDIA      SUNNY     96  64  34 S10       29.59F HX  98
EMPORIA        SUNNY     86  71  60 S15       29.65F
LAWRENCE       MOSUNNY   87  73  62 S10       29.65S
MANHATTAN      MOSUNNY   93  69  45 S12       29.60R HX  98
OLATHE IND     SUNNY     85  71  63 S12       29.67F
OLATHE EXE     MOSUNNY   84  73  69 S13G20    29.67F
SALINA         SUNNY     99  62  29 S17       29.59S HX 100
TOPEKA BILLARD SUNNY     88  72  58 SE14G22   29.62F
TOPEKA FORBES  SUNNY     89  71  55 S12       29.64F HX  95
$$




USA.gov is the U.S. government's official web portal to all federal, state and local government web resources and services.